TimeCST,TemperatureF,Dew PointF,Humidity,Sea Level PressureIn,VisibilityMPH,Wind Direction,Wind SpeedMPH,Gust SpeedMPH,PrecipitationIn,Events,Conditions,WindDirDegrees,DateUTC
12:18 AM,28.4,26.6,93,29.91,10.0,NW,27.6,-,N/A,,Overcast,310,2013-01-02 06:18:00
12:19 AM,28.4,26.6,93,29.91,10.0,NW,26.5,-,N/A,,Overcast,310,2013-01-02 06:19:00
12:27 AM,28.4,26.6,93,29.91,10.0,NW,25.3,-,N/A,,Overcast,310,2013-01-02 06:27:00
12:55 AM,29.3,25.9,87,29.92,10.0,NW,23.0,32.2,N/A,,Overcast,310,2013-01-02 06:55:00
1:08 AM,28.4,26.6,93,29.92,10.0,NW,23.0,32.2,N/A,,Overcast,310,2013-01-02 07:08:00
1:22 AM,28.4,26.6,93,29.92,10.0,WNW,21.9,-,N/A,,Overcast,300,2013-01-02 07:22:00
1:55 AM,28.9,25.7,88,29.91,10.0,NW,20.7,-,N/A,,Overcast,310,2013-01-02 07:55:00
2:02 AM,28.4,24.8,86,29.91,10.0,NW,20.7,-,N/A,,Overcast,310,2013-01-02 08:02:00
2:22 AM,28.4,26.6,93,29.92,10.0,WNW,21.9,-,N/A,,Overcast,300,2013-01-02 08:22:00
2:39 AM,30.2,26.6,86,29.93,10.0,WNW,21.9,-,N/A,,Overcast,300,2013-01-02 08:39:00
2:55 AM,29.5,26.6,89,29.92,10.0,WNW,20.7,-,N/A,,Overcast,300,2013-01-02 08:55:00
3:03 AM,30.2,26.6,86,29.92,10.0,NW,20.7,-,N/A,,Overcast,310,2013-01-02 09:03:00
3:21 AM,28.4,26.6,93,29.92,10.0,NW,21.9,-,N/A,,Overcast,310,2013-01-02 09:21:00
3:41 AM,28.4,26.6,93,29.94,10.0,NW,24.2,-,N/A,,Overcast,320,2013-01-02 09:41:00
3:55 AM,29.3,27.0,91,29.94,6.0,NW,23.0,27.6,0.00,Snow,Light Snow,320,2013-01-02 09:55:00
3:59 AM,28.4,26.6,93,29.94,6.0,NW,21.9,-,N/A,Snow,Light Snow,320,2013-01-02 09:59:00
4:00 AM,28.4,26.6,93,29.94,5.0,NW,23.0,-,N/A,Snow,Light Snow,320,2013-01-02 10:00:00
4:08 AM,28.4,26.6,93,29.94,4.0,NW,20.7,-,N/A,Snow,Light Snow,320,2013-01-02 10:08:00
4:11 AM,28.4,26.6,93,29.94,5.0,NW,20.7,-,N/A,Snow,Light Snow,320,2013-01-02 10:11:00
4:15 AM,28.4,26.6,93,29.95,8.0,NW,19.6,-,N/A,Snow,Light Snow,320,2013-01-02 10:15:00
4:55 AM,28.2,26.2,92,29.95,10.0,NW,21.9,-,0.00,,Overcast,310,2013-01-02 10:55:00
4:57 AM,28.4,26.6,93,29.95,10.0,NW,20.7,-,N/A,,Overcast,310,2013-01-02 10:57:00
5:07 AM,28.4,26.6,93,29.95,10.0,NW,17.3,-,N/A,,Overcast,310,2013-01-02 11:07:00
5:18 AM,28.4,24.8,86,29.96,10.0,WNW,19.6,-,N/A,,Overcast,300,2013-01-02 11:18:00
5:55 AM,28.0,24.6,87,29.96,10.0,NW,16.1,-,N/A,,Overcast,310,2013-01-02 11:55:00
6:33 AM,26.6,23.0,86,29.97,10.0,WNW,18.4,-,N/A,,Overcast,300,2013-01-02 12:33:00
6:34 AM,26.6,23.0,86,29.97,10.0,WNW,19.6,-,N/A,,Overcast,300,2013-01-02 12:34:00
6:40 AM,26.6,23.0,86,29.97,10.0,WNW,18.4,-,N/A,,Overcast,300,2013-01-02 12:40:00
6:55 AM,26.8,23.7,88,29.96,9.0,WNW,21.9,-,0.00,,Overcast,300,2013-01-02 12:55:00
7:14 AM,26.6,24.8,93,29.97,3.0,WNW,23.0,-,N/A,Snow,Light Snow,290,2013-01-02 13:14:00
7:18 AM,26.6,24.8,93,29.97,2.5,WNW,19.6,-,N/A,Snow,Light Snow,290,2013-01-02 13:18:00
7:20 AM,26.6,24.8,93,29.97,3.0,WNW,19.6,-,N/A,Snow,Light Snow,290,2013-01-02 13:20:00
7:35 AM,26.6,24.8,93,29.97,4.0,WNW,17.3,-,N/A,,Overcast,290,2013-01-02 13:35:00
7:55 AM,27.1,25.3,93,29.97,7.0,WNW,16.1,-,0.00,,Overcast,290,2013-01-02 13:55:00
8:55 AM,26.4,24.3,92,29.97,6.0,WNW,17.3,-,0.00,,Overcast,290,2013-01-02 14:55:00
9:55 AM,25.9,23.4,90,30.00,10.0,WNW,17.3,-,0.00,,Mostly Cloudy,300,2013-01-02 15:55:00
10:02 AM,26.6,23.0,86,30.01,10.0,NW,17.3,-,N/A,,Overcast,310,2013-01-02 16:02:00
10:04 AM,26.6,23.0,86,30.01,10.0,NW,16.1,-,N/A,,Overcast,310,2013-01-02 16:04:00
10:06 AM,26.6,23.0,86,30.01,10.0,NW,17.3,-,N/A,,Overcast,310,2013-01-02 16:06:00
10:52 AM,26.6,24.8,93,30.04,10.0,NW,16.1,-,N/A,,Overcast,320,2013-01-02 16:52:00
10:55 AM,27.1,24.8,91,30.04,10.0,NW,18.4,-,N/A,,Overcast,320,2013-01-02 16:55:00
11:40 AM,26.6,24.8,93,30.06,5.0,North,21.9,-,N/A,,Freezing Rain,10,2013-01-02 17:40:00
11:41 AM,26.6,24.8,93,30.06,4.0,North,23.0,-,N/A,,Freezing Rain,10,2013-01-02 17:41:00
11:43 AM,26.6,24.8,93,30.07,2.5,North,19.6,-,N/A,,Overcast,10,2013-01-02 17:43:00
11:48 AM,24.8,23.0,93,30.08,2.0,NNE,18.4,-,N/A,,Overcast,20,2013-01-02 17:48:00
11:53 AM,24.8,23.0,93,30.08,3.0,North,18.4,25.3,N/A,,Overcast,10,2013-01-02 17:53:00
11:55 AM,24.8,23.0,93,30.08,4.0,North,18.4,25.3,0.00,,Overcast,10,2013-01-02 17:55:00
11:59 AM,24.8,23.0,93,30.08,5.0,North,17.3,25.3,N/A,,Freezing Rain,10,2013-01-02 17:59:00
12:10 PM,24.8,23.0,93,30.09,9.0,NNE,17.3,-,N/A,,Overcast,20,2013-01-02 18:10:00
12:13 PM,24.8,21.2,86,30.09,9.0,NNE,17.3,-,N/A,,Overcast,20,2013-01-02 18:13:00
12:22 PM,23.0,21.2,93,30.09,5.0,NNE,18.4,-,N/A,,Freezing Rain,30,2013-01-02 18:22:00
12:36 PM,21.2,17.6,86,30.12,10.0,NNE,17.3,-,N/A,,Overcast,20,2013-01-02 18:36:00
12:39 PM,21.2,17.6,86,30.12,10.0,NNE,17.3,-,N/A,,Overcast,20,2013-01-02 18:39:00
12:47 PM,21.2,17.6,86,30.12,9.0,NNE,19.6,-,N/A,,Overcast,20,2013-01-02 18:47:00
12:55 PM,20.8,16.7,84,30.12,10.0,NNE,18.4,-,0.00,,Overcast,20,2013-01-02 18:55:00
1:26 PM,19.4,15.8,86,30.15,10.0,North,17.3,-,N/A,,Overcast,10,2013-01-02 19:26:00
1:36 PM,19.4,15.8,86,30.15,10.0,North,18.4,-,N/A,,Overcast,10,2013-01-02 19:36:00
1:55 PM,19.9,15.3,82,30.15,10.0,North,16.1,21.9,N/A,,Overcast,10,2013-01-02 19:55:00
2:20 PM,19.4,15.8,86,30.16,10.0,NNW,12.7,-,N/A,,Overcast,340,2013-01-02 20:20:00
2:55 PM,19.8,15.3,83,30.18,10.0,North,11.5,-,N/A,,Overcast,360,2013-01-02 20:55:00
3:47 PM,19.4,14.0,80,30.20,10.0,North,11.5,-,N/A,,Overcast,350,2013-01-02 21:47:00
3:55 PM,19.2,15.1,84,30.21,10.0,NNW,11.5,-,0.00,Snow,Light Snow,340,2013-01-02 21:55:00
4:28 PM,17.6,14.0,86,30.23,5.0,NNW,20.7,-,N/A,,Overcast,330,2013-01-02 22:28:00
4:55 PM,16.7,12.2,82,30.24,10.0,North,17.3,-,0.00,,Overcast,350,2013-01-02 22:55:00
5:55 PM,17.2,12.4,81,30.26,10.0,North,17.3,-,0.00,,Overcast,350,2013-01-02 23:55:00
6:55 PM,17.1,12.6,82,30.30,10.0,NNW,11.5,-,N/A,,Overcast,340,2013-01-03 00:55:00
7:55 PM,16.2,11.5,82,30.33,10.0,NNW,10.4,-,N/A,,Overcast,330,2013-01-03 01:55:00
8:55 PM,14.9,10.0,81,30.32,10.0,NNW,5.8,-,N/A,,Overcast,340,2013-01-03 02:55:00
9:55 PM,14.5,10.6,84,30.35,10.0,NW,6.9,-,N/A,,Overcast,310,2013-01-03 03:55:00
10:55 PM,14.0,10.2,85,30.35,10.0,WNW,9.2,-,0.00,Snow,Light Snow,290,2013-01-03 04:55:00
11:55 PM,12.0,8.1,84,30.34,10.0,West,6.9,-,0.00,,Overcast,280,2013-01-03 05:55:00